Location: Jaite
(41.2884°N, 81.5737°W)
Time: 06:10:26
(UTC+00:00)

Cosmos 2056 Rocket - Pass Details

Date: 15 November 2025
Orbit: 738 x 795 km, 74.0° (Epoch: 04 December)

Event Time Altitude Azimuth Distance (km) Brightness Sun altitude
Exits shadow 10:21:55 13° 211° (SSW) 2,127 5.6 -21.2°
Maximum altitude 10:26:38 64° 292° (WNW) 879 3.5 -20.3°
Drops below altitude 10° 10:31:59 10° 14° (NNE) 2,365 6.1 -19.3°
Sets 10:34:25 0° 17° (NNE) 3,292 6.9 -18.9°
